Dewpoint
69 72 76 73 74 74 74 74 74 75 75 76 76 76 75 75 74 74 74 74 74 74 73 73 73 73 73 73 73 74 74 74 74 75 75 76 75 75 76 76 75 73 75
70 73 76 76 74 74 74 74 74 74 74 75 75 76 75 75 75 75 75 74 74 74 74 74 74 74 74 73 73 73 74 73 74 74 74 75 75 75 75 75 75 74 75
71 73 74 76 75 74 74 74 74 74 74 74 75 75 75 75 75 75 75 74 75 74 74 74 74 74 73 74 74 72 73 73 74 75 74 73 73 75 74 74 75 75 75
72 73 74 76 76 75 75 75 75 75 75 74 74 74 74 74 75 75 75 74 74 74 74 74 73 73 73 73 73 73 74 74 74 72 68 68 70 74 74 75 75 75 75
72 73 74 76 75 74 74 75 75 75 75 75 75 74 74 74 74 75 75 75 74 72 71 70 69 69 69 69 70 71 72 72 73 74 68 68 69 71 74 75 74 75 75
73 74 76 76 74 74 74 75 76 75 75 75 75 75 75 75 75 74 74 73 72 72 71 70 69 69 70 71 71 70 70 71 71 72 72 71 70 70 74 75 75 75 75
72 74 75 77 76 74 74 75 76 75 75 75 75 75 75 75 74 73 72 72 71 71 71 71 71 71 72 73 73 74 74 72 70 71 71 71 68 69 73 75 75 75 75
72 74 75 76 75 74 74 75 75 75 75 74 74 75 74 74 72 71 71 72 72 72 73 73 73 73 74 74 75 75 75 74 72 72 71 71 71 72 72 74 76 76 75
72 74 74 74 74 74 75 74 75 74 74 74 74 74 73 72 72 72 72 72 73 73 74 75 75 75 76 76 76 76 76 75 74 75 73 73 72 73 74 74 75 75 75
72 73 73 74 73 73 73 74 74 75 74 74 74 73 73 72 73 73 75 75 75 75 76 76 76 76 77 77 77 77 76 76 76 75 75 75 74 75 75 75 76 76 76
70 72 73 73 73 74 74 74 75 75 74 73 73 73 73 73 72 73 74 75 76 76 76 77 77 78 78 77 77 77 76 77 76 75 75 75 76 76 75 74 75 75 76
68 71 72 73 72 73 74 73 73 72 73 73 74 74 73 73 73 73 74 75 75 76 76 76 76 77 77 77 77 76 77 76 76 75 75 76 76 76 76 76 75 75 75
67 70 72 72 72 73 74 74 73 74 73 73 73 73 73 72 72 72 73 73 74 74 75 76 75 74 74 75 76 75 74 73 74 74 74 76 77 76 77 77 77 76 76
67 69 71 72 72 72 73 72 73 73 73 72 72 72 72 71 71 71 72 73 74 75 75 75 74 73 72 72 74 74 74 73 72 71 74 76 77 77 76 77 77 76 75
67 68 70 72 72 72 72 71 71 72 72 72 72 72 71 71 70 70 72 74 74 75 75 75 75 73 72 71 70 72 74 74 73 73 74 75 77 77 78 77 76 75 75
67 68 69 70 71 71 71 70 69 70 71 71 70 70 70 70 69 70 72 72 72 74 76 75 75 74 73 73 72 73 74 74 74 75 75 75 76 78 78 77 76 76 75
67 68 68 69 69 70 70 69 68 69 69 69 69 69 70 70 70 71 71 71 73 74 76 74 74 74 73 73 74 72 73 74 74 74 73 72 76 77 77 77 76 76 75
67 67 68 67 68 68 68 68 67 69 69 69 69 69 70 71 72 72 71 72 73 75 75 74 74 73 73 72 72 72 72 73 72 73 72 72 72 74 77 76 76 76 76
66 66 67 67 67 67 67 66 67 69 69 69 69 69 70 71 72 72 71 72 74 75 74 74 73 72 71 71 71 71 71 71 72 71 73 74 73 74 74 76 76 76 75
65 65 65 65 66 67 66 66 68 69 69 69 69 69 69 70 71 72 72 72 74 75 74 71 71 72 72 72 71 73 72 71 70 71 72 72 72 74 73 74 76 76 76
63 64 64 64 65 65 65 66 67 67 68 69 68 69 70 70 71 73 72 74 74 74 72 72 71 71 72 73 71 70 69 70 69 70 71 71 70 70 73 74 74 73 74
60 62 63 63 64 65 65 66 67 67 69 69 69 69 69 70 70 72 73 73 74 74 73 72 71 71 71 72 69 67 66 67 68 69 70 70 70 70 70 73 74 74 75
58 61 62 63 64 65 66 68 69 69 69 68 68 68 68 69 70 72 73 74 73 74 72 71 70 71 71 71 70 69 66 64 64 66 67 69 69 70 69 72 72 74 74
58 60 63 64 64 65 67 68 68 67 66 67 67 68 68 70 71 73 73 73 73 73 72 71 70 70 71 70 70 70 69 68 66 63 67 66 68 68 69 70 71 72 74
58 58 62 65 65 66 67 68 67 67 67 68 68 68 68 69 71 72 74 73 73 73 72 72 71 69 70 70 71 70 69 67 66 65 65 66 68 69 69 69 70 70 72
57 59 62 65 66 67 68 68 68 67 67 66 67 67 68 69 69 71 73 73 73 73 73 72 72 70 69 69 70 71 70 67 66 67 66 67 67 69 71 71 71 72 73
Lifted_Index
-1 -2 -3 -3 -3 -3 -3 -4 -4 -4 -4 -4 -5 -5 -5 -5 -5 -4 -4 -5 -5 -5 -5 -5 -5 -5 -5 -5 -5 -6 -6 -6 -6 -6 -7 -7 -7 -7 -7 -7 -6 -6 -6
-1 -2 -3 -3 -3 -3 -3 -3 -3 -3 -4 -4 -4 -5 -5 -5 -5 -5 -5 -5 -5 -5 -5 -5 -5 -5 -5 -5 -5 -5 -6 -6 -6 -6 -6 -6 -7 -7 -6 -6 -6 -6 -6
-1 -2 -3 -3 -3 -3 -3 -3 -3 -3 -4 -4 -4 -5 -5 -5 -5 -5 -5 -5 -5 -5 -5 -5 -5 -5 -5 -5 -5 -5 -5 -6 -6 -6 -5 -5 -6 -6 -6 -6 -5 -5 -5
-2 -2 -3 -3 -3 -3 -3 -3 -4 -4 -4 -4 -4 -4 -5 -5 -5 -5 -5 -5 -5 -5 -5 -5 -4 -4 -4 -4 -4 -5 -5 -5 -5 -5 -4 -4 -4 -5 -6 -6 -5 -5 -5
-2 -2 -3 -4 -3 -3 -3 -3 -4 -4 -4 -4 -4 -4 -4 -4 -4 -4 -4 -4 -4 -4 -4 -3 -3 -3 -3 -3 -3 -4 -4 -4 -4 -4 -3 -2 -3 -4 -5 -5 -5 -5 -5
-2 -3 -3 -4 -3 -3 -3 -3 -4 -4 -4 -4 -4 -4 -4 -4 -4 -4 -4 -3 -3 -3 -3 -2 -2 -2 -2 -2 -3 -3 -3 -3 -3 -3 -2 -1 -1 -3 -4 -5 -5 -5 -5
-2 -3 -3 -4 -3 -3 -3 -3 -3 -4 -4 -4 -4 -4 -4 -4 -3 -3 -3 -2 -2 -2 -2 -2 -2 -3 -3 -3 -3 -4 -4 -3 -3 -3 -2 -1 -1 -2 -4 -5 -5 -5 -5
-2 -2 -3 -4 -3 -3 -3 -3 -3 -3 -3 -3 -3 -3 -3 -3 -2 -2 -2 -2 -2 -3 -3 -3 -4 -4 -4 -4 -4 -4 -4 -4 -4 -3 -3 -2 -1 -2 -3 -4 -5 -5 -5
-2 -2 -3 -3 -3 -3 -3 -3 -3 -3 -3 -3 -3 -3 -3 -2 -2 -2 -3 -3 -3 -4 -4 -5 -5 -5 -5 -5 -5 -5 -5 -5 -4 -4 -3 -3 -2 -3 -3 -4 -5 -5 -5
-2 -2 -2 -3 -3 -3 -3 -3 -3 -3 -3 -3 -3 -2 -2 -2 -2 -3 -3 -4 -5 -5 -5 -6 -6 -6 -6 -6 -6 -6 -5 -5 -5 -4 -4 -4 -3 -3 -4 -4 -4 -4 -4
-1 -1 -2 -3 -3 -3 -3 -3 -3 -3 -3 -2 -2 -2 -2 -2 -2 -3 -3 -4 -5 -5 -5 -6 -6 -6 -6 -6 -6 -6 -6 -5 -5 -5 -4 -4 -4 -4 -4 -4 -3 -3 -4
0 -1 -2 -2 -2 -3 -3 -3 -3 -3 -3 -3 -3 -2 -2 -2 -2 -2 -3 -3 -4 -4 -5 -5 -5 -5 -5 -5 -5 -6 -5 -5 -5 -5 -5 -4 -4 -4 -4 -4 -4 -3 -3
0 -0 -1 -2 -2 -2 -3 -3 -2 -2 -2 -2 -2 -2 -2 -2 -2 -2 -2 -2 -3 -3 -4 -4 -4 -4 -4 -4 -5 -5 -4 -4 -4 -4 -4 -4 -5 -4 -4 -4 -4 -4 -3
1 0 -1 -1 -1 -2 -2 -2 -2 -2 -2 -2 -2 -2 -1 -1 -1 -1 -2 -2 -3 -3 -4 -4 -4 -4 -4 -4 -4 -4 -4 -4 -4 -4 -4 -5 -5 -5 -5 -5 -4 -4 -3
0 0 -0 -1 -1 -1 -1 -2 -2 -1 -1 -1 -1 -1 -1 -0 -0 -1 -1 -2 -3 -3 -4 -4 -4 -4 -3 -3 -3 -4 -4 -5 -4 -4 -5 -5 -5 -5 -5 -5 -4 -4 -4
0 -0 -0 -0 -0 -0 -0 -0 -0 -0 -0 -0 -0 -0 -0 -0 -0 -1 -1 -2 -2 -3 -3 -3 -3 -3 -3 -3 -3 -4 -5 -5 -5 -5 -5 -5 -5 -6 -6 -5 -5 -4 -4
-0 -0 -0 0 0 0 0 0 0 0 0 -0 -0 -0 -0 -1 -1 -1 -1 -2 -2 -3 -3 -3 -3 -3 -3 -3 -3 -3 -4 -5 -5 -5 -5 -5 -6 -6 -5 -5 -4 -4 -4
-0 -0 -0 -0 0 0 0 0 1 1 0 -0 -0 -1 -1 -1 -1 -1 -1 -2 -2 -3 -3 -3 -3 -3 -3 -3 -3 -3 -3 -3 -4 -4 -4 -4 -5 -5 -5 -5 -4 -4 -4
-0 -0 -0 -0 -0 -0 -0 -0 -0 0 0 -0 -0 -1 -1 -1 -1 -1 -2 -2 -3 -3 -3 -3 -3 -3 -3 -3 -3 -3 -3 -3 -3 -3 -4 -4 -4 -5 -5 -5 -4 -4 -4
-0 -0 -0 -0 0 0 -0 -1 -1 -1 -0 -1 -1 -1 -1 -1 -2 -2 -2 -2 -3 -3 -3 -3 -3 -2 -2 -2 -2 -3 -3 -2 -2 -2 -3 -3 -4 -4 -4 -4 -4 -4 -4
-0 -0 0 0 0 0 -0 -1 -1 -1 -1 -1 -1 -1 -1 -1 -2 -2 -2 -2 -3 -3 -3 -3 -3 -2 -2 -2 -2 -2 -2 -2 -2 -1 -2 -2 -3 -3 -3 -4 -4 -4 -4
0 0 0 1 1 1 0 -0 -1 -1 -1 -2 -2 -2 -2 -1 -1 -2 -2 -2 -2 -3 -3 -3 -2 -2 -2 -2 -2 -1 -1 -1 -1 -1 -1 -1 -2 -2 -2 -3 -3 -4 -4
0 0 0 0 1 1 0 -0 -1 -1 -1 -2 -2 -2 -2 -1 -1 -2 -3 -3 -3 -3 -2 -2 -2 -2 -1 -1 -2 -2 -1 -1 -1 -1 -0 -0 -1 -1 -1 -2 -3 -3 -4
-1 -1 -1 -0 -0 0 0 -0 -1 -1 -1 -2 -2 -2 -1 -1 -2 -3 -3 -3 -3 -3 -3 -2 -2 -2 -2 -1 -1 -2 -2 -2 -2 -1 -0 -0 -0 -0 -0 -1 -1 -3 -3
-2 -2 -1 -1 -1 -0 -0 -0 -1 -1 -2 -2 -2 -2 -1 -1 -2 -3 -3 -4 -4 -4 -3 -3 -3 -2 -2 -2 -1 -1 -2 -2 -2 -1 -1 -1 -0 -0 -0 -1 -1 -2 -3
-3 -2 -2 -1 -1 -1 -1 -1 -1 -2 -2 -2 -2 -2 -1 -2 -2 -3 -4 -4 -4 -4 -4 -4 -3 -3 -2 -2 -2 -1 -2 -2 -2 -2 -1 -1 -1 -1 -1 -1 -1 -2 -3